カタログに戻る

ARIANE 2 DEB

運用中GTO
NORAD 33581·DEBRIS·🇫🇷 France

打ち上げ Jan 27, 1989 から Guiana Space Centre

Loading…

TLE

古いSource: Space-Track

元期: Sep 13, 2026, 04:45 UTC

1 33581U 89006BZ  26256.19792421 -.00000131  00000-0  17998-3 0  9992
2 33581   8.5219  77.9479 7122705  66.8596 218.7014  2.31191881 44605

AllMySatでARIANE 2 DEBをリアルタイム追跡

Download on the App Store